Regional Weather Roundup
Issued by NWS State College, PA

Home | Current Version | Previous Version | Text Only | Print | Product List | Glossary On
Versions: 1 2 3 4 5 6 7 8 9 10 11 12 13 14 15 16 17 18 19 20 21 22 23 24 25 26 27 28 29 30 31 32 33 34 35 36 37 38 39 40 41 42 43 44 45 46 47 48 49 50
000
ASUS41 KCTP 231410
RWRCTP

REGIONAL WEATHER ROUNDUP
NATIONAL WEATHER SERVICE STATE COLLEGE PA
1000 AM EDT WED JUL 23 2014

Note: "fair" indicates few or no clouds below 12,000 feet with no
significant weather and/or obstructions to visibility.

* = STATION THAT DOES NOT REPORT PRECIPITATION /E.G. RAIN...SNOW...ETC/
    THUNDER OR FOG.

PAZ002>004-007>009-013>016-020>023-029>032-231500-
WESTERN PENNSYLVANIA

CITY           SKY/WX    TMP DP  RH WIND       PRES   REMARKS
ERIE           CLOUDY    73  69  87 W10       29.93S
MEADVILLE      CLOUDY    75  68  78 SW7       29.97S
FRANKLIN*      CLOUDY    73  68  83 W6        29.99R
NEW CASTLE       N/A     78  71  79 W9        29.97S
BEAVER COUNTY  MOSUNNY   77  68  73 W9G21     29.98F
BUTLER*        CLOUDY    75  70  83 SW8       29.99S
PITTSBURGH INT CLOUDY    77  70  79 SW8       29.98F
PITTSBURGH     PTSUNNY   76  69  79 S8        29.98F
INDIANA*       SUNNY     77  72  83 SW7       30.02F
LATROBE        PTSUNNY   77  73  88 SW12      29.99F
WASHINGTON CO* PTSUNNY   77  70  78 SW6       30.01F
$$

PAZ004>006-010>012-017>019-024>028-033>037-041-042-045-046-049>053-231500-
CENTRAL PENNSYLVANIA

CITY           SKY/WX    TMP DP  RH WIND       PRES   REMARKS
BRADFORD       CLOUDY    75  67  76 W9        29.98S
DUBOIS         PTSUNNY   77  69  76 SW12      29.96F
CLEARFIELD     NOT AVBL
JOHNSTOWN      PTSUNNY   75  67  76 SW9       30.03F
ALTOONA        SUNNY     79  72  79 S7        30.00F
STATE COLLEGE  MOSUNNY   79  72  78 SW12      29.97F
WILLIAMSPORT   MOSUNNY   79  71  76 VRB5      29.92F
SELINSGROVE    SUNNY     81  72  74 S5        29.95F
FT INDIANTOWN  PTSUNNY   78  76  91 SW6       29.97F
CAPITAL CITY   MOSUNNY   79  72  79 E7        29.96F
HARRISBURG     MOSUNNY   82  71  69 SE5       29.95F
YORK           SUNNY     81  72  74 VRB3      29.97F
$$

PAZ038>040-043-044-047-048-054-055-060>062-067>071-231500-
EASTERN PENNSYLVANIA

CITY           SKY/WX    TMP DP  RH WIND       PRES   REMARKS
SCRANTON       MOSUNNY   80  69  69 SW9       29.95F
MOUNT POCONO   SUNNY     78  68  71 NW9       30.02F
ALLENTOWN      SUNNY     80  69  69 W7        29.96F
QUAKERTOWN*    MOSUNNY   79  72  78 S6        29.98F
READING        SUNNY     81  70  69 VRB5      29.96F
LANCASTER      SUNNY     78  70  76 CALM      29.97F
COATESVILLE    MOSUNNY   77  73  88 SW3       30.00F
POTTSTOWN      MOSUNNY   80  71  74 VRB6      29.98F
BLUE BELL      MOSUNNY   82  72  69 SW7       29.97F
DOYLESTOWN     SUNNY     79  71  76 SW6       29.97F
WILLOW GROVE   NOT AVBL
NORTH PHILA    SUNNY     83  70  64 SW7       29.98F
PHILADELPHIA   MOSUNNY   81  69  67 SW9       29.98F
$$


USA.gov is the U.S. government's official web portal to all federal, state and local government web resources and services.